Content
SEND FEEDBACK

Daily
Averages
Monthly
Summary
Turkmenistan

ASHGABAT, TURKMENISTAN


Home > Asia > Turkmenistan
Elevation: 775 feet     Latitude: 37 58N     Longitude: 058 20E

WEATHER
 
SELECT A DAY
Number of Records: 177,354;   Date Range: 3/15/97 - 8/12/14
 
SHARE

PRINT THIS DATA

[ ← Previous Day ]
WEATHER ALMANAC - MARCH 28, 2013
[ Next Day → ]
[ °C ]   °F
Weather ElementAverageHighLow
Temperature67.2 °F84.2 °F (3:00 pm)48.2 °F (5:00 am)
Dewpoint40.6 °F51.8 °F (1:00 am)28.4 °F (3:00 pm)
Humidity43.9 %88 % (1:00 am)10 % (2:00 pm)
Barometer29.76 in29.89 in (11:00 pm)29.71 in (4:00 am)
Wind Speed5.2 mph20.1 mph (5:00 pm)
Weather ElementAverage
Visibility6 mi
Wind DirectionSSE (143.8 °)

Weather ElementTotal
Precipitation---
Cooling Degree Days1.2 (Base 65)
Growing Degree Days16.2 (Base 50)
Averaged from 42 records on March 28, 2013
WEATHER CONDITIONS BREAKOUT
WIND DIRECTION BREAKOUT
WEATHER BY HOUR - MARCH 28, 2013
[ °C ]   °F
Local TimeTemperatureDewpointHumidityBarometerVisibilityWind DirectionWind SpeedGust SpeedPrecipitationEventsConditions
1:00 AM55.4 °F51.8 °F88 %29.77 in6.2 miESE (110°)4.5 mphOvercast
2:00 AM54.0 °F51.0 °F87 %29.78 in2.0 miESE (120°)2.2 mphFogPatches of Fog
2:00 AM53.6 °F50.0 °F88 %29.74 in6.2 miEast (100°)6.7 mphOvercast
3:00 AM51.8 °F48.2 °F88 %29.74 in6.2 miESE (120°)6.7 mphOvercast
4:00 AM50.0 °F44.6 °F82 %29.71 in6.2 miSW (220°)4.5 mphOvercast
5:00 AM48.2 °F44.6 °F87 %29.71 in6.2 miSE (130°)4.5 mphOvercast
5:00 AM50.0 °F44.0 °F74 %29.75 in6.0 miSSE (150°)4.5 mphOvercast
6:00 AM50.0 °F44.6 °F82 %29.71 in6.2 miSSW (210°)4.5 mphOvercast
6:30 AM51.8 °F42.8 °F71 %29.71 in6.2 miSouth (180°)4.5 mphOvercast
7:00 AM51.8 °F39.2 °F62 %29.74 in6.2 miSW (230°)4.5 mphOvercast
7:30 AM51.8 °F39.2 °F62 %29.74 in6.2 miSSW (210°)4.5 mphOvercast
8:00 AM49.0 °F40.0 °F61 %29.77 in6.0 miCalmPartly Cloudy
8:00 AM53.6 °F39.2 °F58 %29.74 in6.2 miCalmMostly Cloudy
8:30 AM53.6 °F46.4 °F77 %29.74 in6.2 miCalmMostly Cloudy
9:00 AM59.0 °F48.2 °F67 %29.74 in5.0 miVariable2.2 mphMostly Cloudy
9:30 AM64.4 °F48.2 °F56 %29.74 in5.6 miVariable2.2 mphMostly Cloudy
10:00 AM66.2 °F41.0 °F40 %29.77 in6.2 miCalmMostly Cloudy
10:30 AM69.8 °F42.8 °F38 %29.77 in6.2 miCalmMostly Cloudy
11:00 AM71.0 °F44.0 °F26 %29.76 in6.0 miCalmScattered Clouds
11:00 AM73.4 °F39.2 °F29 %29.77 in6.2 miVariable2.2 mphMostly Cloudy
11:30 AM77.0 °F35.6 °F22 %29.77 in6.2 miVariable2.2 mphMostly Cloudy
12:00 PM77.0 °F33.8 °F21 %29.74 in6.2 miENE (60°)4.5 mphMostly Cloudy
12:30 PM78.8 °F33.8 °F20 %29.74 in6.2 miVariable2.2 mphMostly Cloudy
1:00 PM80.6 °F32.0 °F17 %29.74 in6.2 miESE (110°)4.5 mphMostly Cloudy
1:30 PM82.4 °F35.6 °F19 %29.74 in6.2 miENE (70°)4.5 mphMostly Cloudy
2:00 PM83.0 °F36.0 °F10 %29.71 in6.0 miNNE (30°)2.2 mphClear
2:00 PM82.4 °F32.0 °F16 %29.74 in6.2 miENE (70°)6.7 mphMostly Cloudy
2:30 PM82.4 °F32.0 °F16 %29.71 in6.2 miNE (50°)6.7 mphMostly Cloudy
3:00 PM84.2 °F28.4 °F13 %29.71 in6.2 miNE (50°)4.5 mphMostly Cloudy
3:30 PM84.2 °F33.8 °F16 %29.74 in6.2 miNW (320°)4.5 mphScattered Clouds
4:00 PM84.2 °F32.0 °F15 %29.74 in6.2 miNorth (350°)8.9 mphScattered Clouds
5:00 PM80.6 °F32.0 °F17 %29.77 in6.2 miWNW (300°)15.7 mphScattered Clouds
5:00 PM82.0 °F38.0 °F12 %29.73 in6.0 miWNW (300°)20.1 mphClear
6:00 PM78.8 °F39.2 °F24 %29.77 in6.2 miWNW (290°)15.7 mphScattered Clouds
6:30 PM77.0 °F42.8 °F29 %29.80 in6.2 miWNW (290°)11.2 mphScattered Clouds
7:00 PM73.4 °F42.8 °F33 %29.80 in6.2 miWest (280°)8.9 mphMostly Cloudy
8:00 PM71.6 °F41.0 °F33 %29.83 in6.2 miWest (260°)8.9 mphScattered Clouds
8:00 PM71.0 °F47.0 °F31 %29.79 in6.0 miWSW (250°)6.7 mphClear
9:00 PM68.0 °F42.8 °F40 %29.86 in6.2 miWSW (240°)6.7 mphClear
10:00 PM66.2 °F42.8 °F43 %29.86 in6.2 miWSW (240°)4.5 mphScattered Clouds
11:00 PM66.0 °F43.0 °F32 %29.86 in6.0 miSW (220°)4.5 mphClear
11:00 PM64.4 °F39.2 °F40 %29.89 in6.2 miSouth (190°)6.7 mphScattered Clouds
Hourly data recorded from UTAA, located miles away from Ashgabat, Turkmenistan







STORIES FROM OUR PARTNERS